GEFSMW_con_probscp_186.txt.gz
Probability
38 36 37 37 37 38 39 37 34 36 42 43 41 38 35 31 29 29 29 29 27 24 19 16 17 18 18 17 17 15 12 12 14 10 4 3 5 8 10 13 16 15 14
35 34 35 35 35 36 37 36 35 35 36 38 37 35 32 29 28 27 28 28 26 23 19 17 16 16 16 16 16 15 12 12 11 8 4 2 3 5 7 10 12 13 14
30 31 32 34 34 35 35 34 34 31 29 29 28 28 28 27 26 25 25 25 23 20 18 17 16 15 14 13 13 12 11 10 9 8 5 3 2 3 4 6 7 9 11
26 29 32 34 34 33 32 32 32 28 25 24 24 24 23 23 23 22 21 20 17 16 16 16 16 14 12 12 12 11 10 9 9 9 7 4 3 3 3 4 4 5 6
25 30 33 32 32 31 30 30 30 27 24 23 23 22 19 18 19 18 16 14 13 13 13 13 13 12 11 11 12 11 10 10 10 9 8 6 4 3 2 2 2 2 3
26 30 31 30 30 30 30 29 26 24 24 22 20 19 17 16 15 15 13 12 11 10 9 8 8 9 9 10 11 11 11 11 11 10 8 7 6 4 2 1 1 1 2
24 25 26 26 26 26 28 26 22 21 21 19 17 15 14 13 11 10 9 8 7 6 5 4 5 6 6 7 10 11 12 12 10 9 7 6 5 3 1 1 0 1 1
19 19 19 19 18 20 22 22 20 17 16 15 14 12 10 8 6 5 5 5 4 4 3 3 4 5 4 5 7 10 10 11 9 7 5 3 3 1 0 0 0 0 0
16 15 15 15 13 15 18 19 18 16 14 12 11 9 7 5 4 4 5 4 3 3 3 3 3 4 3 3 5 6 6 7 7 6 3 2 1 1 1 2 1 1 0
16 15 16 15 13 13 16 18 18 16 13 11 10 8 6 4 4 5 5 4 3 3 3 3 3 3 3 3 3 4 4 4 5 5 3 2 2 2 3 3 2 2 1
16 16 16 15 12 13 15 16 15 14 12 10 9 9 7 4 4 6 6 4 3 3 3 3 3 3 3 3 3 3 3 3 4 4 3 2 3 3 3 2 2 1 1
15 14 12 10 10 12 13 13 12 11 9 9 9 9 8 5 4 6 6 5 4 3 3 3 3 3 3 3 3 3 3 3 3 3 3 2 2 2 1 1 0 0 0
14 13 12 9 8 9 10 9 9 9 8 8 9 10 9 6 5 5 5 4 3 3 3 3 3 3 3 3 3 3 3 2 2 2 2 2 1 1 0 0 0 0 0
14 14 13 12 10 8 8 7 7 7 7 7 9 10 10 8 5 5 4 3 3 3 3 3 3 3 3 3 3 3 3 2 1 1 1 1 0 0 0 0 0 0 0
13 13 13 11 10 9 8 8 7 6 6 6 7 9 10 9 7 5 4 3 3 3 3 3 3 3 3 3 3 3 3 2 1 0 0 0 0 0 0 0 0 0 0
11 11 11 10 9 9 10 9 7 6 5 4 4 6 7 7 6 4 3 3 3 3 3 3 3 3 3 2 1 1 2 2 1 0 0 0 0 0 0 0 0 0 0
9 9 9 10 10 9 11 10 7 5 4 3 3 3 4 4 3 2 1 1 2 3 3 3 3 3 3 1 0 0 1 2 2 1 0 0 0 0 0 1 1 1 1
9 10 11 12 12 9 9 9 6 4 3 3 3 3 2 2 2 1 0 0 1 1 2 3 3 3 2 1 0 0 0 1 2 1 1 0 0 0 0 1 2 2 2
11 12 13 13 11 8 7 6 4 3 3 3 3 1 1 1 2 3 2 1 1 0 1 1 3 4 3 1 0 0 0 1 1 1 1 0 0 0 0 1 1 1 1
12 12 12 11 9 7 6 5 4 3 3 3 3 1 1 1 3 5 5 3 2 1 0 1 2 4 3 1 0 0 0 1 1 1 1 0 0 0 0 0 0 0 0
9 9 9 8 6 5 4 4 3 3 2 2 3 3 2 3 4 6 6 4 3 1 1 1 2 3 2 1 0 0 0 0 0 0 0 0 0 0 0 0 0 0 0
5 6 6 5 4 3 3 3 2 3 3 2 2 3 3 3 4 6 5 4 3 3 2 1 1 2 2 0 0 0 0 0 0 0 0 0 0 0 0 0 0 0 0
2 2 2 2 3 3 3 2 2 3 4 3 2 3 3 4 5 5 5 4 4 3 1 1 1 1 1 0 0 0 0 0 0 0 0 0 0 0 0 0 0 0 0
2 2 1 2 3 3 3 2 1 2 4 4 2 2 2 3 5 5 4 4 3 2 0 0 0 0 0 0 0 0 0 0 0 0 0 0 0 0 0 0 0 0 0
2 2 2 2 2 2 2 1 0 2 4 4 2 1 1 2 4 5 4 3 3 1 0 0 0 0 0 0 0 0 0 0 0 0 0 0 0 0 0 0 0 0 0
2 3 3 2 1 2 1 0 0 2 4 4 2 1 0 1 2 3 2 2 1 1 0 0 0 0 0 0 0 0 0 0 0 0 0 0 0 0 0 0 0 0 0

GEFSMW_con_probscp_192.txt.gz
Probability
14 14 17 21 24 25 25 23 19 15 15 14 13 12 11 12 12 10 9 10 10 9 7 6 5 4 2 1 0 0 0 0 0 0 0 0 0 0 0 0 0 0 0
16 16 18 21 22 22 24 23 20 17 16 15 13 11 10 11 11 9 9 9 8 7 6 4 4 3 1 0 0 0 0 0 0 0 0 0 0 0 0 0 0 0 0
16 15 16 18 18 19 21 22 20 17 17 16 14 11 9 10 9 8 7 7 6 4 4 3 3 2 1 0 0 0 0 0 0 0 0 0 0 0 0 0 0 0 0
11 12 13 14 15 15 17 17 17 16 15 16 14 12 10 8 7 6 5 4 4 3 3 4 3 1 0 0 0 0 0 0 0 0 0 0 0 0 0 0 0 0 0
7 9 12 12 12 12 13 14 13 12 11 11 11 11 9 6 4 4 4 3 4 5 5 5 3 1 0 0 0 0 0 0 0 0 0 0 0 0 0 0 0 0 0
7 9 12 12 11 11 11 11 11 9 8 8 8 8 6 4 3 3 3 3 4 5 6 5 3 1 0 0 0 0 0 0 0 0 0 0 0 0 0 0 0 0 0
6 8 11 11 11 11 11 10 9 8 7 8 8 6 5 4 3 3 3 3 3 4 5 4 3 2 1 0 0 0 0 0 0 0 0 0 0 0 0 0 0 0 0
3 5 7 9 10 11 10 10 9 7 7 7 7 6 5 5 4 3 3 3 3 3 4 4 4 3 1 1 1 0 0 0 0 0 0 0 0 0 0 0 0 0 0
3 3 4 5 7 8 9 9 8 6 5 6 6 6 6 6 5 4 3 3 3 3 4 4 4 3 3 2 2 1 0 0 0 0 0 0 0 0 0 0 0 0 0
3 2 2 3 5 5 6 6 6 4 4 5 6 6 5 4 4 3 3 3 3 3 3 4 4 3 3 3 3 1 0 0 0 0 0 0 0 0 0 0 0 0 0
2 2 2 2 3 3 3 3 3 3 3 3 4 4 4 3 3 3 3 3 3 3 3 3 3 3 3 3 3 2 1 0 0 0 0 0 0 0 0 0 0 0 0
1 2 1 1 1 2 2 1 1 1 1 1 3 3 3 3 3 3 3 3 3 3 3 3 3 3 2 2 3 2 1 0 0 0 0 0 0 0 0 0 0 0 0
1 2 1 0 0 1 1 0 0 0 0 1 2 2 2 2 2 2 2 2 3 3 3 3 2 1 1 1 1 2 2 1 1 0 0 0 0 0 0 0 0 0 0
2 1 1 0 0 0 0 0 0 0 0 0 1 1 1 1 1 1 1 1 1 2 2 2 1 0 1 1 1 2 3 3 2 1 0 0 0 0 0 0 0 0 0
2 1 0 0 0 0 0 0 0 0 0 0 0 0 0 0 0 0 0 0 0 1 1 1 1 1 2 2 2 2 3 3 3 2 0 0 0 0 0 0 0 0 0
1 0 0 0 0 0 0 0 0 0 0 0 0 0 0 0 0 0 0 0 0 0 0 0 1 1 2 2 2 2 3 3 3 2 0 0 0 0 0 0 0 0 0
0 0 0 0 0 0 0 0 0 0 0 0 0 0 0 0 0 0 0 0 0 0 0 0 0 1 1 1 0 1 2 3 3 2 1 0 0 0 0 0 0 0 0
0 0 0 0 0 0 0 0 0 0 0 0 0 0 0 0 0 0 0 0 0 0 0 0 0 0 0 0 0 0 1 2 2 2 1 1 1 0 0 0 0 0 0
0 0 0 0 0 0 0 0 0 0 0 0 0 0 0 0 0 0 0 0 0 0 0 0 0 0 0 0 0 0 0 1 1 1 1 0 0 0 0 0 0 0 0
0 0 0 0 0 0 0 0 0 0 0 0 0 0 0 0 0 0 0 0 0 0 0 0 0 0 0 0 0 0 0 0 0 0 0 0 0 0 0 0 0 0 0
0 0 0 0 0 0 0 0 0 0 0 0 0 0 0 0 0 0 0 0 0 0 0 0 0 0 0 0 0 0 0 0 0 0 0 0 0 0 0 0 0 0 0
0 0 0 0 0 0 0 0 0 0 0 0 0 0 0 0 0 0 0 0 0 0 0 0 0 0 0 0 0 0 0 0 0 0 0 0 0 0 0 0 0 0 0
0 0 0 0 0 0 0 0 0 0 0 0 0 0 0 0 0 0 0 0 0 0 0 0 0 0 0 0 0 0 0 0 0 0 0 0 0 0 0 0 0 0 0
0 0 0 0 0 0 0 0 0 0 0 0 0 0 0 0 0 0 0 0 0 0 0 0 0 0 0 0 0 0 0 0 0 0 0 0 0 0 0 0 0 0 0
0 0 0 0 0 0 0 0 0 0 0 0 0 0 0 0 0 0 0 0 0 0 0 0 0 0 0 0 0 0 0 0 0 0 0 0 0 0 0 0 0 0 0
0 0 0 0 0 0 0 0 0 0 0 0 0 0 0 0 0 0 0 0 0 0 0 0 0 0 0 0 0 0 0 0 0 0 0 0 0 0 0 0 0 0 0

GEFSMW_con_probscp_198.txt.gz
Probability
10 7 6 6 5 5 5 6 8 9 8 8 8 7 6 6 6 6 6 6 7 9 8 7 6 4 3 4 5 5 4 1 0 0 0 0 0 0 0 0 0 0 0
9 6 5 6 6 6 6 6 7 8 8 9 9 8 6 5 5 6 5 4 6 7 7 6 4 3 3 3 4 4 3 2 1 0 0 0 0 0 0 0 0 0 0
7 5 4 5 5 7 7 7 7 7 9 10 10 8 6 4 4 5 4 3 4 4 4 3 2 2 2 2 2 2 2 2 1 0 0 0 0 0 0 0 0 0 0
4 3 3 3 3 5 7 7 7 8 8 10 11 9 5 3 4 4 4 3 3 3 2 1 0 1 1 1 1 1 1 1 1 0 0 0 0 0 0 0 0 0 0
2 2 1 1 1 3 6 7 7 8 8 10 10 8 4 3 4 5 4 4 4 3 1 0 0 0 0 0 0 0 0 0 0 0 0 0 0 0 0 0 0 0 0
1 1 0 0 0 2 5 6 6 7 8 9 8 6 4 3 4 5 5 5 4 3 1 1 1 1 0 0 0 0 0 0 0 0 0 0 0 0 0 0 0 0 0
0 1 1 0 0 2 5 6 6 6 6 7 6 6 5 5 4 5 5 4 4 3 3 2 2 2 1 1 0 0 0 0 0 0 0 0 0 0 0 0 0 0 0
1 1 1 0 0 1 4 6 5 4 4 4 5 5 5 4 4 4 4 3 3 3 3 3 3 3 3 2 1 1 0 0 0 0 0 0 0 0 0 0 0 0 0
0 1 1 0 0 1 2 3 3 3 3 3 4 4 4 4 4 4 3 3 3 3 3 3 3 3 3 3 3 2 1 1 0 0 0 0 0 0 0 0 0 0 0
0 0 0 0 0 0 1 1 1 2 2 3 3 4 4 3 4 3 3 3 3 2 2 3 3 3 3 3 3 3 3 2 1 1 0 0 0 0 0 0 0 0 0
0 0 0 0 0 0 0 0 0 1 1 1 2 3 3 3 3 3 3 3 3 3 3 3 3 3 3 3 3 3 3 3 3 2 1 0 0 0 0 0 0 0 0
0 0 0 0 0 0 0 0 0 0 0 0 1 2 2 2 2 2 2 2 2 2 3 3 3 3 3 3 3 3 3 3 3 2 1 0 0 0 0 0 0 0 0
0 0 0 0 0 0 0 0 0 0 0 0 0 1 1 1 1 1 1 1 1 1 1 2 2 3 3 3 3 3 3 3 3 3 1 0 0 0 0 0 0 0 0
0 0 0 0 0 0 0 0 0 0 0 0 0 0 0 0 0 0 0 0 0 0 0 1 1 1 2 3 3 3 3 3 3 3 2 1 0 0 0 0 0 0 0
0 0 0 0 0 0 0 0 0 0 0 0 0 0 0 0 0 0 0 0 0 0 0 0 0 0 1 1 2 2 3 3 3 3 3 2 0 0 0 0 0 0 0
0 0 0 0 0 0 0 0 0 0 0 0 0 0 0 0 0 0 0 0 0 0 0 0 0 0 0 0 1 1 1 2 3 3 3 2 1 0 0 0 0 0 0
0 0 0 0 0 0 0 0 0 0 0 0 0 0 0 0 0 0 0 0 0 0 0 0 0 0 0 0 0 0 0 1 3 3 3 3 2 1 0 0 0 0 0
0 0 0 0 0 0 0 0 0 0 0 0 0 0 0 0 0 0 0 0 0 0 0 0 0 0 0 0 0 0 0 1 2 2 2 2 2 1 0 0 0 0 0
0 0 0 0 0 0 0 0 0 0 0 0 0 0 0 0 0 0 0 0 0 0 0 0 0 0 0 0 0 0 0 0 1 1 1 1 1 0 0 0 0 0 0
0 0 0 0 0 0 0 0 0 0 0 0 0 0 0 0 0 0 0 0 0 0 0 0 0 0 0 0 0 0 0 0 0 0 0 0 0 0 0 0 0 0 0
0 0 0 0 0 0 0 0 0 0 0 0 0 0 0 0 0 0 0 0 0 0 0 0 0 0 0 0 0 0 0 0 0 0 0 0 0 0 0 0 0 0 0
0 0 0 0 0 0 0 0 0 0 0 0 0 0 0 0 0 0 0 0 0 0 0 0 0 0 0 0 0 0 0 0 0 0 0 0 0 0 0 0 0 0 0
0 0 0 0 0 0 0 0 0 0 0 0 0 0 0 0 0 0 0 0 0 0 0 0 0 0 0 0 0 0 0 0 0 0 0 0 0 0 0 0 0 0 0
0 0 0 0 0 0 0 0 0 0 0 0 0 0 0 0 0 0 0 0 0 0 0 0 0 0 0 0 0 0 0 0 0 0 0 0 0 0 0 0 0 0 0
0 0 0 0 0 0 0 0 0 0 0 0 0 0 0 0 0 0 0 0 0 0 0 0 0 0 0 0 0 0 0 0 0 0 0 0 0 0 0 0 0 0 0
0 0 0 0 0 0 0 0 0 0 0 0 0 0 0 0 0 0 0 0 0 0 0 0 0 0 0 0 0 0 0 0 0 0 0 0 0 0 0 0 0 0 0

GEFSMW_con_probscp_204.txt.gz
Probability
10 12 12 8 7 7 8 8 10 14 17 17 17 16 14 11 10 12 15 17 17 17 16 17 19 19 16 13 14 16 15 12 10 8 7 6 6 6 6 6 5 4 4
11 13 12 9 7 6 7 8 9 11 14 15 16 15 14 11 10 11 12 14 15 15 13 14 16 17 15 12 12 13 13 11 10 9 8 7 6 6 6 6 4 3 4
11 14 14 10 7 5 6 7 7 8 11 13 13 14 14 12 10 10 10 12 13 13 12 13 14 14 12 10 10 10 10 10 11 10 9 8 7 7 6 5 4 3 4
11 13 13 9 6 5 5 6 7 8 9 11 11 12 14 13 11 10 11 12 12 11 11 12 12 11 9 8 8 8 9 10 11 11 10 9 8 7 6 5 4 4 4
10 11 10 7 5 4 4 5 7 8 9 9 10 11 13 13 12 12 12 12 11 9 8 9 10 9 7 6 7 8 9 9 10 10 10 9 8 6 6 6 5 4 4
8 8 8 6 5 4 4 4 7 8 8 8 8 9 12 13 13 13 13 11 9 7 6 7 7 7 6 6 7 9 10 9 8 9 9 9 8 7 7 5 4 3 3
5 6 6 5 4 4 4 4 4 5 6 6 6 7 9 12 14 13 12 10 8 7 7 7 6 6 6 6 6 8 9 8 8 8 8 9 9 9 8 5 4 3 2
4 4 3 3 2 3 4 4 5 5 5 4 4 5 7 10 11 11 10 9 8 8 8 7 6 4 4 4 5 6 7 7 7 7 9 9 9 7 6 6 4 3 2
2 1 1 1 1 2 4 5 7 7 5 4 4 5 6 7 9 9 8 7 7 7 8 8 6 4 3 2 3 4 5 6 6 7 7 8 7 5 4 4 4 3 2
2 1 0 0 0 1 3 5 5 6 5 4 5 6 6 7 8 9 8 6 5 5 6 6 6 5 4 3 2 3 4 5 6 6 6 6 5 4 3 3 4 3 3
3 2 1 0 0 1 3 3 3 3 3 3 4 5 6 6 7 8 8 6 4 3 4 4 4 5 5 4 3 3 3 4 4 4 4 5 4 3 3 3 3 2 1
2 3 2 1 1 2 3 3 3 3 2 1 2 3 4 4 5 5 4 3 3 3 3 3 3 4 4 4 3 3 3 3 3 3 3 4 3 3 3 3 3 2 1
1 1 2 2 3 3 4 3 3 3 2 1 1 1 1 1 2 1 1 1 2 2 2 2 2 2 3 3 3 3 3 3 3 3 3 3 3 3 3 3 3 2 1
0 1 2 3 4 4 4 3 2 2 2 1 0 0 0 0 0 0 0 0 1 1 1 1 1 1 1 2 2 3 3 3 3 3 3 3 3 3 3 3 3 3 2
0 1 2 2 3 3 3 2 1 1 1 0 0 0 0 0 0 0 0 0 0 0 0 0 0 0 0 1 1 1 2 2 3 3 3 3 3 3 3 2 2 2 1
0 0 1 1 1 1 1 1 1 1 0 0 0 0 0 0 0 0 0 0 0 0 0 0 0 0 0 0 0 0 1 1 1 2 3 3 3 3 2 1 1 1 0
0 0 0 0 0 0 0 0 0 0 0 0 0 0 0 0 0 0 0 0 0 0 0 0 0 0 0 0 0 0 0 0 0 1 2 3 3 3 2 1 1 0 0
0 0 0 0 0 0 0 0 0 0 0 0 0 0 0 0 0 0 0 0 0 0 0 0 0 0 0 0 0 0 0 0 0 0 1 2 3 3 3 2 1 0 0
0 0 0 0 0 0 0 0 0 0 0 0 0 0 0 0 0 0 0 0 0 0 0 0 0 0 0 0 0 0 0 0 0 0 0 1 2 3 2 2 1 0 0
0 0 0 0 0 0 0 0 0 0 0 0 0 0 0 0 0 0 0 0 0 0 0 0 0 0 0 0 0 0 0 0 0 0 0 1 1 1 1 1 0 0 0
0 0 0 0 0 0 0 0 0 0 0 0 0 0 0 0 0 0 0 0 0 0 0 0 0 0 0 0 0 0 0 0 0 0 0 0 0 0 0 0 0 0 0
0 0 0 0 0 0 0 0 0 0 0 0 0 0 0 0 0 0 0 0 0 0 0 0 0 0 0 0 0 0 0 0 0 0 0 0 0 0 0 0 0 0 0
0 0 0 0 0 0 0 0 0 0 0 0 0 0 0 0 0 0 0 0 0 0 0 0 0 0 0 0 0 0 0 0 0 0 0 0 0 0 0 0 0 0 0
0 0 0 0 0 0 0 0 0 0 0 0 0 0 0 0 0 0 0 0 0 0 0 0 0 0 0 0 0 0 0 0 0 0 0 0 0 0 0 0 0 0 0
0 0 0 0 0 0 0 0 0 0 0 0 0 0 0 0 0 0 0 0 0 0 0 0 0 0 0 0 0 0 0 0 0 0 0 0 0 0 0 0 0 0 0
0 0 0 0 0 0 0 0 0 0 0 0 0 0 0 0 0 0 0 0 0 0 0 0 0 0 0 0 0 0 0 0 0 0 0 0 0 0 0 0 0 0 0

GEFSMW_con_probscp_210.txt.gz
Probability
25 27 27 25 22 22 23 23 21 18 17 20 22 21 16 14 17 17 17 19 20 20 19 19 19 17 16 15 13 13 13 13 12 10 8 8 7 7 10 14 13 9 6
26 27 28 26 25 24 24 23 22 21 21 23 23 22 17 14 15 16 16 18 19 18 18 19 19 16 15 14 13 12 12 13 12 10 9 7 7 7 8 10 10 7 4
27 27 27 28 27 26 24 23 23 24 23 23 22 21 18 14 13 13 15 17 18 17 17 19 20 19 17 15 14 13 13 13 12 11 9 8 7 7 7 7 6 5 5
23 22 24 25 24 24 23 23 23 22 20 19 19 18 16 12 11 11 13 15 16 15 16 17 18 20 19 18 17 15 14 12 10 9 8 7 7 6 6 5 5 6 6
15 16 18 19 18 19 20 20 21 20 17 16 16 15 13 11 9 9 10 11 12 13 14 14 15 17 18 18 18 16 15 12 8 7 6 6 5 5 4 4 5 6 6
9 12 14 15 14 14 15 16 18 19 17 15 13 12 11 10 9 9 9 8 8 10 12 13 14 15 16 15 15 16 16 14 9 7 6 5 4 4 4 3 3 5 6
8 10 14 16 16 13 13 14 16 17 15 12 11 9 9 9 9 9 9 10 9 9 10 11 13 16 15 13 13 15 16 14 11 8 6 6 5 5 5 4 3 5 6
9 10 12 16 16 13 12 12 12 14 13 11 9 8 7 8 8 8 10 11 10 10 10 10 12 14 13 12 11 11 12 12 11 9 7 6 4 5 6 5 5 5 6
10 8 9 12 12 11 11 11 10 11 11 11 10 7 6 6 6 7 9 10 10 10 10 9 9 10 9 8 8 8 8 9 9 9 8 5 4 4 5 6 6 6 6
7 6 7 9 9 9 10 11 10 10 11 11 10 7 5 4 4 4 7 10 11 11 10 8 8 8 7 6 5 5 6 6 7 8 8 5 4 3 4 4 5 6 6
5 6 7 7 7 8 8 9 9 9 10 10 9 7 5 5 5 4 5 8 11 11 10 8 7 6 6 5 4 4 5 5 6 7 6 4 3 3 3 3 4 4 4
5 6 6 6 5 5 5 6 6 6 7 8 8 6 5 5 5 5 5 6 8 9 9 9 7 5 4 5 4 4 4 4 4 5 4 3 3 3 3 3 3 3 2
6 6 7 6 5 4 4 5 5 4 4 4 5 4 4 4 4 4 4 4 5 6 7 8 7 5 3 2 2 2 3 3 4 5 4 3 3 3 3 1 1 2 2
6 7 7 6 5 4 3 4 4 4 4 3 3 3 3 3 3 3 3 3 3 3 5 6 6 5 3 1 0 1 2 3 5 6 6 4 3 3 2 1 0 1 1
5 5 6 5 5 3 1 2 2 3 3 2 2 2 3 3 3 3 3 1 1 2 2 2 3 3 2 0 0 1 2 3 4 6 6 4 2 2 1 0 0 0 1
4 4 3 3 3 2 1 0 1 1 1 1 1 1 1 2 3 2 2 1 2 3 3 2 1 1 0 0 0 1 1 2 3 4 3 2 1 0 0 0 0 0 1
3 2 1 1 1 1 1 0 0 0 0 0 0 0 1 1 1 1 1 2 3 5 5 4 2 0 0 0 0 0 0 1 2 2 1 1 1 0 1 1 0 0 1
2 1 0 0 1 1 1 0 0 0 0 0 0 0 0 0 0 1 3 4 5 6 5 3 2 0 0 0 0 0 0 1 1 2 1 0 1 1 1 1 0 0 0
2 1 0 0 1 1 0 0 1 1 0 0 0 0 0 0 1 2 4 5 6 6 4 1 1 0 0 0 0 0 0 0 1 1 1 0 0 0 1 1 0 0 0
4 3 2 1 2 1 1 1 2 2 1 0 0 0 0 0 1 3 5 6 7 5 3 1 1 1 1 0 0 0 0 0 0 0 0 0 0 0 0 0 0 0 0
3 3 2 2 3 3 2 3 3 3 2 1 0 1 1 0 1 4 6 7 6 5 4 4 4 4 2 1 0 0 0 0 0 0 0 0 0 0 0 0 0 0 0
2 2 2 3 3 3 3 3 3 3 3 1 1 2 2 2 2 4 6 6 4 3 4 4 5 5 3 1 0 0 0 0 0 0 0 0 0 0 0 0 0 0 0
2 2 3 3 2 2 3 2 2 2 3 3 3 3 4 3 3 3 3 3 2 1 1 2 3 3 1 0 0 0 0 0 0 0 0 0 0 0 0 0 0 0 0
4 4 4 3 2 2 2 1 0 1 3 3 4 4 3 3 3 3 2 1 1 0 1 1 1 1 1 0 0 0 0 0 0 0 0 0 0 0 0 0 0 0 0
4 5 4 2 1 1 1 1 0 1 2 3 4 3 2 1 2 2 1 0 0 0 1 2 2 2 1 0 0 0 0 0 0 0 0 0 0 0 0 0 0 0 0
4 5 4 2 0 0 1 0 0 0 2 4 4 2 1 0 1 1 1 0 0 0 1 1 2 2 1 0 0 0 0 0 0 0 0 0 0 0 0 0 0 0 0

GEFSMW_con_probscp_216.txt.gz
Probability
12 12 9 6 4 3 1 0 1 2 2 4 6 5 4 4 3 1 0 0 1 0 0 1 2 3 3 3 2 3 4 3 2 1 0 0 0 0 0 0 0 0 0
13 12 10 7 4 3 2 0 0 1 1 3 5 5 5 4 3 2 1 1 1 1 0 1 2 3 3 3 3 3 4 3 2 1 0 0 0 0 0 0 0 0 0
13 12 11 8 4 2 1 0 0 0 0 2 4 6 5 5 4 3 2 1 2 2 1 0 1 2 3 3 3 4 5 4 3 2 0 0 0 0 0 0 0 0 0
11 10 9 7 5 3 1 0 0 0 0 1 4 6 6 5 5 4 3 3 3 3 2 1 0 1 2 2 3 4 5 4 4 2 1 0 0 0 0 0 0 0 0
10 9 8 7 6 4 2 1 1 1 0 1 3 6 6 5 4 3 3 3 3 3 3 2 1 1 1 1 2 3 4 4 4 3 1 0 0 0 0 0 0 0 0
9 8 7 6 6 4 3 2 1 1 1 2 4 5 5 3 1 1 1 3 3 3 3 3 3 2 2 1 1 2 3 4 4 3 1 0 0 0 0 0 0 0 0
7 7 7 6 6 4 3 2 1 1 1 2 3 3 3 1 0 0 1 2 3 3 3 3 3 3 3 2 2 1 2 2 2 2 1 0 0 0 0 0 0 0 0
6 6 6 6 6 4 3 2 1 0 0 1 1 1 1 0 0 0 0 1 2 2 2 2 2 3 3 3 1 0 0 0 0 0 0 0 0 0 0 0 0 0 0
6 6 6 6 5 4 3 2 0 0 0 0 0 0 0 0 0 0 0 0 1 1 1 1 1 2 2 2 1 0 0 0 0 0 0 0 0 0 0 0 0 0 0
6 5 5 6 5 3 3 2 1 0 0 0 1 0 0 0 0 0 0 0 0 0 0 0 0 1 1 1 0 0 0 0 0 0 0 0 0 0 0 0 0 0 0
5 5 4 4 5 4 3 2 1 0 0 0 0 0 0 0 0 0 0 0 0 0 0 0 0 0 0 0 0 0 0 0 0 0 0 0 0 0 0 0 0 0 0
3 3 3 3 5 5 3 1 0 0 0 0 0 0 0 0 0 0 0 0 0 0 0 0 0 0 0 0 0 0 0 0 0 0 0 0 0 0 0 0 0 0 0
1 1 1 3 4 4 2 1 0 0 0 0 0 0 0 0 0 0 0 0 0 0 0 0 0 0 0 0 0 0 0 0 0 0 0 0 0 0 0 0 0 0 0
0 0 1 2 2 2 1 0 0 0 0 0 0 0 0 0 0 0 0 0 0 0 0 0 0 0 0 0 0 0 0 0 0 0 0 0 0 0 0 0 0 0 0
0 0 0 1 1 0 0 0 0 0 0 0 0 0 0 0 0 0 0 0 0 0 0 0 0 0 0 0 0 0 0 0 0 0 0 0 0 0 0 0 0 0 0
0 0 0 0 0 0 0 0 0 0 0 0 0 0 0 0 0 0 0 0 0 0 0 0 0 0 0 0 0 0 0 0 0 0 0 0 0 0 0 0 0 0 0
0 0 0 0 0 0 0 0 0 0 0 0 0 0 0 0 0 0 0 0 0 0 0 0 0 0 0 0 0 0 0 0 0 0 0 0 0 0 0 0 0 0 0
0 0 0 0 0 0 0 0 0 0 0 0 0 0 0 0 0 0 0 0 0 0 0 0 0 0 0 0 0 0 0 0 0 0 0 0 0 0 0 0 0 0 0
0 0 0 0 0 0 0 0 0 0 0 0 0 0 0 0 0 0 0 0 0 0 0 0 0 0 0 0 0 0 0 0 0 0 0 0 0 0 0 0 0 0 0
0 0 0 0 0 0 0 0 0 0 0 0 0 0 0 0 0 0 0 0 0 0 0 0 0 0 0 0 0 0 0 0 0 0 0 0 0 0 0 0 0 0 0
0 0 0 0 0 0 0 0 0 0 0 0 0 0 0 0 0 0 0 0 0 0 0 0 0 0 0 0 0 0 0 0 0 0 0 0 0 0 0 0 0 0 0
0 0 0 0 0 0 0 0 0 0 0 0 0 0 0 0 0 0 0 0 0 0 0 0 0 0 0 0 0 0 0 0 0 0 0 0 0 0 0 0 0 0 0
0 0 0 0 0 0 0 0 0 0 0 0 0 0 0 0 0 0 0 0 0 0 0 0 0 0 0 0 0 0 0 0 0 0 0 0 0 0 0 0 0 0 0
0 0 0 0 0 0 0 0 0 0 0 0 0 0 0 0 0 0 0 0 0 0 0 0 0 0 0 0 0 0 0 0 0 0 0 0 0 0 0 0 0 0 0
0 0 0 0 0 0 0 0 0 0 0 0 0 0 0 0 0 0 0 0 0 0 0 0 0 0 0 0 0 0 0 0 0 0 0 0 0 0 0 0 0 0 0
0 0 0 0 0 0 0 0 0 0 0 0 0 0 0 0 0 0 0 0 0 0 0 0 0 0 0 0 0 0 0 0 0 0 0 0 0 0 0 0 0 0 0

GEFSMW_con_probscp_222.txt.gz
Probability
1 1 1 2 2 1 0 0 0 0 1 1 2 3 3 3 3 3 3 2 1 2 3 3 3 2 1 1 2 2 2 2 3 4 3 3 1 0 0 1 2 2 3
2 1 1 1 1 0 0 0 0 0 0 0 1 1 2 3 3 3 3 2 1 1 2 2 2 1 0 0 1 1 2 3 4 4 3 3 2 1 0 0 1 1 2
3 2 1 1 0 0 0 0 0 0 0 0 0 0 1 1 3 4 3 2 1 0 1 1 1 0 0 0 0 1 2 3 4 4 4 3 2 1 0 0 0 0 1
5 5 3 2 1 0 0 0 0 0 0 0 0 0 0 1 3 4 3 2 1 0 0 0 0 0 0 0 0 1 2 3 3 4 3 3 2 0 0 0 0 0 0
7 6 5 4 2 1 0 0 0 0 0 0 0 0 0 1 2 2 2 1 1 0 0 0 0 0 0 0 0 0 1 1 2 3 3 3 2 1 0 0 0 0 0
8 7 6 4 2 1 0 0 0 0 0 0 0 0 0 0 1 1 0 0 0 0 0 1 1 1 0 0 0 0 0 0 1 2 3 4 4 1 0 0 0 0 0
8 7 6 5 2 0 0 0 0 0 0 0 0 0 0 0 0 0 0 0 0 0 0 1 1 1 0 0 0 0 0 0 0 2 3 4 3 1 0 0 0 0 0
6 6 6 5 3 1 0 0 0 0 0 0 0 0 0 0 0 0 0 0 0 0 0 0 1 1 0 0 0 0 0 0 0 1 2 2 1 0 0 0 0 0 0
4 5 6 5 3 1 0 0 0 0 0 0 0 0 0 0 0 0 1 0 0 0 0 0 0 0 0 0 0 0 0 0 0 1 1 1 0 0 0 0 0 0 0
2 4 4 3 2 1 0 0 0 0 0 0 0 0 0 0 0 0 0 0 0 0 0 0 0 0 0 0 0 0 0 0 0 0 0 0 0 0 0 0 0 0 0
1 2 2 1 1 0 0 0 0 0 0 0 0 0 0 0 0 0 0 0 0 0 0 0 0 0 0 0 0 0 0 0 0 0 0 0 0 0 0 0 0 0 0
0 1 1 0 0 0 0 0 0 0 0 0 0 0 0 0 0 0 0 0 0 0 0 0 0 0 0 0 0 0 0 0 0 0 0 0 0 0 0 0 0 0 0
0 0 0 0 0 0 0 0 0 0 0 0 0 0 0 0 0 0 0 0 0 0 0 0 0 0 0 0 0 0 0 0 0 0 0 0 0 0 0 0 0 0 0
0 0 0 0 0 0 0 0 0 0 0 0 0 0 0 0 0 0 0 0 0 0 0 0 0 0 0 0 0 0 0 0 0 0 0 0 0 0 0 0 0 0 0
0 0 0 0 0 0 0 0 0 0 0 0 0 0 0 0 0 0 0 0 0 0 0 0 0 0 0 0 0 0 0 0 0 0 0 0 0 0 0 0 0 0 0
0 0 0 0 0 0 0 0 0 0 0 0 0 0 0 0 0 0 0 0 0 0 0 0 0 0 0 0 0 0 0 0 0 0 0 0 0 0 0 0 0 0 0
0 0 0 0 0 0 0 0 0 0 0 0 0 0 0 0 0 0 0 0 0 0 0 0 0 0 0 0 0 0 0 0 0 0 0 0 0 0 0 0 0 0 0
0 0 0 0 0 0 0 0 0 0 0 0 0 0 0 0 0 0 0 0 0 0 0 0 0 0 0 0 0 0 0 0 0 0 0 0 0 0 0 0 0 0 0
0 0 0 0 0 0 0 0 0 0 0 0 0 0 0 0 0 0 0 0 0 0 0 0 0 0 0 0 0 0 0 0 0 0 0 0 0 0 0 0 0 0 0
0 0 0 0 0 0 0 0 0 0 0 0 0 0 0 0 0 0 0 0 0 0 0 0 0 0 0 0 0 0 0 0 0 0 0 0 0 0 0 0 0 0 0
0 0 0 0 0 0 0 0 0 0 0 0 0 0 0 0 0 0 0 0 0 0 0 0 0 0 0 0 0 0 0 0 0 0 0 0 0 0 0 0 0 0 0
0 0 0 0 0 0 0 0 0 0 0 0 0 0 0 0 0 0 0 0 0 0 0 0 0 0 0 0 0 0 0 0 0 0 0 0 0 0 0 0 0 0 0
0 0 0 0 0 0 0 0 0 0 0 0 0 0 0 0 0 0 0 0 0 0 0 0 0 0 0 0 0 0 0 0 0 0 0 0 0 0 0 0 0 0 0
0 0 0 0 0 0 0 0 0 0 0 0 0 0 0 0 0 0 0 0 0 0 0 0 0 0 0 0 0 0 0 0 0 0 0 0 0 0 0 0 0 0 0
0 0 0 0 0 0 0 0 0 0 0 0 0 0 0 0 0 0 0 0 0 0 0 0 0 0 0 0 0 0 0 0 0 0 0 0 0 0 0 0 0 0 0
0 0 0 0 0 0 0 0 0 0 0 0 0 0 0 0 0 0 0 0 0 0 0 0 0 0 0 0 0 0 0 0 0 0 0 0 0 0 0 0 0 0 0